Auburn, AL

7:10 AM CST on February 23, 2017 (GMT -0600)
Auburn-opelika-pitts

Weather History for KAUO - May, 2013

Change the Weather History Date:

Friday, May 3, 2013

  Actual Average Record
Temperature  
Mean Temperature 66 °F -  
Max Temperature 70 °F - 89 °F (1959)
Min Temperature 61 °F - 39 °F (1961)
Cooling Degree Days 1    
Month to date cooling degree days 6  
Year to date cooling degree days 81  
Growing Degree Days 14 (Base 50)    
Moisture  
Dew Point 54 °F    
Average Humidity 70    
Maximum Humidity 82    
Minimum Humidity 56    
Precipitation  
Precipitation 0.07 in - 8.43 in (2007)
Month to date precipitation 0.07  
Year to date precipitation 18.55  
Sea Level Pressure  
Sea Level Pressure 29.96 in    
Wind  
Wind Speed 10 mph (East)    
Max Wind Speed 20 mph    
Max Gust Speed 28 mph    
Visibility 10 miles    
Events      
T = Trace of Precipitation, MM = Missing Value Source: NWS Daily Summary

Daily Weather History Graph

Daily Weather History Graph

Search for Another Location

Airport or City:

Trip Planner

Search our weather history database for the weather conditions in past years. The results will help you decide how hot, cold, wet, or windy it might be!

Date:

Astronomy

May. 03, 2013 Rise Set
Actual Time 5:52 AM CDT 7:24 PM CDT
Civil Twilight 5:26 AM CDT 7:51 PM CDT
Nautical Twilight 4:54 AM CDT 8:22 PM CDT
Astronomical Twilight 4:21 AM CDT 8:56 PM CDT
Moon 1:55 AM CDT (5/3) 1:38 PM CDT (5/3)
Length of Visible Light 14h 24m
Length of Day
13h 32m
Last Quarter, 37% of the Moon is Illuminated
May 3
Last Quarter
May 9
New
May 17
First Quarter
May 24
Full
May 31
Last Quarter

Hourly Weather History & Observations

Time (CDT) Temp. Dew Point Humidity Pressure Visibility Wind Dir Wind Speed Gust Speed Precip Events Conditions
12:15 AM 64.4 °F 55.4 °F 73% 30.04 in 10.0 mi ENE 10.4 mph 17.3 mph N/A   Overcast
12:35 AM 64.4 °F 55.4 °F 73% 30.04 in 10.0 mi East 13.8 mph 19.6 mph N/A   Overcast
12:55 AM 64.4 °F 55.4 °F 73% 30.04 in 10.0 mi East 16.1 mph - N/A   Overcast
1:15 AM 64.4 °F 55.4 °F 73% 30.03 in 10.0 mi ENE 8.1 mph - N/A   Overcast
1:35 AM 64.4 °F 53.6 °F 68% 30.02 in 10.0 mi ENE 12.7 mph 18.4 mph N/A   Overcast
1:55 AM 64.4 °F 55.4 °F 73% 30.01 in 10.0 mi ENE 11.5 mph 19.6 mph N/A   Overcast
2:15 AM 64.4 °F 53.6 °F 68% 30.00 in 10.0 mi East 16.1 mph 20.7 mph N/A   Overcast
2:35 AM 64.4 °F 53.6 °F 68% 30.00 in 10.0 mi ENE 12.7 mph - N/A   Overcast
3:15 AM 64.4 °F 53.6 °F 68% 30.00 in 10.0 mi East 12.7 mph 19.6 mph N/A   Overcast
3:35 AM 64.4 °F 53.6 °F 68% 29.99 in 10.0 mi East 11.5 mph - N/A   Overcast
3:55 AM 62.6 °F 53.6 °F 72% 29.99 in 10.0 mi ENE 11.5 mph - N/A   Mostly Cloudy
4:15 AM 62.6 °F 53.6 °F 72% 29.99 in 10.0 mi ENE 9.2 mph - N/A   Overcast
4:35 AM 62.6 °F 53.6 °F 72% 29.99 in 10.0 mi East 11.5 mph - N/A   Overcast
4:55 AM 62.6 °F 53.6 °F 72% 29.99 in 10.0 mi East 10.4 mph - N/A   Overcast
5:15 AM 62.6 °F 53.6 °F 72% 29.98 in 10.0 mi East 11.5 mph - N/A   Overcast
5:35 AM 62.6 °F 53.6 °F 72% 29.98 in 10.0 mi East 13.8 mph 17.3 mph N/A   Mostly Cloudy
5:55 AM 62.6 °F 53.6 °F 72% 29.99 in 10.0 mi East 10.4 mph - N/A   Mostly Cloudy
6:15 AM 62.6 °F 53.6 °F 72% 29.99 in 10.0 mi East 10.4 mph 18.4 mph N/A   Mostly Cloudy
6:35 AM 62.6 °F 53.6 °F 72% 30.00 in 10.0 mi ENE 13.8 mph - N/A   Overcast
6:55 AM 62.6 °F 53.6 °F 72% 30.00 in 10.0 mi East 12.7 mph 18.4 mph N/A   Overcast
7:15 AM 62.6 °F 53.6 °F 72% 30.00 in 10.0 mi East 12.7 mph 18.4 mph N/A   Overcast
7:35 AM 62.6 °F 53.6 °F 72% 30.00 in 10.0 mi East 11.5 mph 18.4 mph N/A   Overcast
7:55 AM 62.6 °F 53.6 °F 72% 30.00 in 10.0 mi East 11.5 mph 19.6 mph N/A   Overcast
8:15 AM 64.4 °F 53.6 °F 68% 30.00 in 10.0 mi East 12.7 mph 23.0 mph N/A   Overcast
8:35 AM 66.2 °F 53.6 °F 64% 30.00 in 10.0 mi East 19.6 mph 25.3 mph N/A   Overcast
8:55 AM 66.2 °F 53.6 °F 64% 29.99 in 10.0 mi East 19.6 mph 27.6 mph N/A   Mostly Cloudy
9:15 AM 68.0 °F 53.6 °F 60% 29.99 in 10.0 mi East 15.0 mph 21.9 mph N/A   Overcast
9:35 AM 66.2 °F 53.6 °F 64% 30.00 in 10.0 mi East 13.8 mph 26.5 mph N/A   Overcast
9:55 AM 66.2 °F 53.6 °F 64% 30.00 in 10.0 mi East 16.1 mph 24.2 mph N/A   Overcast
10:15 AM 66.2 °F 53.6 °F 64% 30.00 in 10.0 mi East 12.7 mph 26.5 mph N/A   Overcast
10:35 AM 66.2 °F 53.6 °F 64% 29.99 in 10.0 mi East 12.7 mph 21.9 mph N/A   Overcast
10:55 AM 69.8 °F 53.6 °F 56% 29.99 in 10.0 mi Calm Calm - N/A   Overcast
11:15 AM 69.8 °F 55.4 °F 60% 29.99 in 10.0 mi Calm Calm - N/A   Overcast
11:35 AM 69.8 °F 55.4 °F 60% 29.98 in 10.0 mi Calm Calm - N/A   Overcast
11:55 AM 68.0 °F 55.4 °F 64% 29.98 in 10.0 mi Calm Calm - N/A   Overcast
12:15 PM 66.2 °F 55.4 °F 68% 29.97 in 10.0 mi Calm Calm - N/A   Overcast
12:55 PM 66.2 °F 55.4 °F 68% 29.97 in 10.0 mi Calm Calm - N/A   Overcast
1:15 PM 68.0 °F 55.4 °F 64% 29.97 in 10.0 mi Calm Calm - N/A   Overcast
1:35 PM 66.2 °F 55.4 °F 68% 29.97 in 10.0 mi East 12.7 mph 20.7 mph N/A   Overcast
1:55 PM 68.0 °F 55.4 °F 64% 29.96 in 10.0 mi East 10.4 mph 21.9 mph N/A   Overcast
2:15 PM 68.0 °F 55.4 °F 64% 29.95 in 10.0 mi Calm Calm - N/A   Mostly Cloudy
2:35 PM 69.8 °F 55.4 °F 60% 29.94 in 10.0 mi Calm Calm - N/A   Overcast
2:55 PM 69.8 °F 55.4 °F 60% 29.93 in 10.0 mi Calm Calm - N/A   Overcast
3:15 PM 68.0 °F 55.4 °F 64% 29.93 in 10.0 mi Calm Calm - N/A   Overcast
3:35 PM 64.4 °F 55.4 °F 73% 29.93 in 7.0 mi Calm Calm - N/A   Overcast
3:55 PM 64.4 °F 55.4 °F 73% 29.92 in 10.0 mi ESE 9.2 mph - N/A   Overcast
4:15 PM 64.4 °F 55.4 °F 73% 29.92 in 10.0 mi ESE 8.1 mph - N/A   Overcast
4:35 PM 66.2 °F 55.4 °F 68% 29.91 in 10.0 mi East 10.4 mph - N/A   Overcast
4:55 PM 66.2 °F 55.4 °F 68% 29.91 in 10.0 mi East 12.7 mph 18.4 mph N/A   Overcast
5:15 PM 66.2 °F 55.4 °F 68% 29.91 in 10.0 mi East 13.8 mph 20.7 mph N/A   Mostly Cloudy
5:35 PM 62.6 °F 55.4 °F 77% 29.92 in 8.0 mi ESE 12.7 mph 26.5 mph N/A   Overcast
5:55 PM 62.6 °F 55.4 °F 77% 29.91 in 10.0 mi ESE 11.5 mph 18.4 mph N/A   Mostly Cloudy
6:15 PM 62.6 °F 55.4 °F 77% 29.91 in 10.0 mi SE 5.8 mph - N/A   Overcast
6:35 PM 62.6 °F 55.4 °F 77% 29.91 in 10.0 mi ESE 10.4 mph 16.1 mph N/A   Overcast
6:55 PM 64.4 °F 55.4 °F 73% 29.91 in 10.0 mi ESE 9.2 mph 17.3 mph N/A   Overcast
7:15 PM 64.4 °F 55.4 °F 73% 29.91 in 10.0 mi ESE 13.8 mph 18.4 mph N/A   Overcast
7:35 PM 64.4 °F 53.6 °F 68% 29.91 in 10.0 mi ESE 10.4 mph 25.3 mph N/A   Overcast
7:55 PM 64.4 °F 53.6 °F 68% 29.91 in 10.0 mi ESE 11.5 mph 19.6 mph N/A   Overcast
8:15 PM 64.4 °F 51.8 °F 64% 29.91 in 10.0 mi East 15.0 mph 25.3 mph N/A   Overcast
8:35 PM 64.4 °F 51.8 °F 64% 29.91 in 10.0 mi ESE 11.5 mph 24.2 mph N/A   Overcast
8:55 PM 62.6 °F 53.6 °F 72% 29.91 in 10.0 mi ESE 11.5 mph 18.4 mph N/A   Overcast
9:15 PM 62.6 °F 53.6 °F 72% 29.92 in 10.0 mi ESE 12.7 mph 19.6 mph N/A   Overcast
9:35 PM 60.8 °F 55.4 °F 82% 29.91 in 9.0 mi ESE 12.7 mph 24.2 mph 0.02 in   Overcast
9:55 PM 60.8 °F 55.4 °F 82% 29.92 in 10.0 mi ESE 11.5 mph 18.4 mph 0.02 in   Overcast
10:15 PM 60.8 °F 55.4 °F 82% 29.91 in 10.0 mi ESE 10.4 mph 18.4 mph N/A   Overcast
10:35 PM 60.8 °F 55.4 °F 82% 29.91 in 10.0 mi ESE 11.5 mph 18.4 mph N/A   Overcast
10:55 PM 60.8 °F 55.4 °F 82% 29.90 in 10.0 mi East 12.7 mph 19.6 mph N/A   Overcast
11:15 PM 60.8 °F 55.4 °F 82% 29.91 in 10.0 mi East 9.2 mph - N/A   Overcast
11:35 PM 60.8 °F 55.4 °F 82% 29.90 in 8.0 mi East 10.4 mph 18.4 mph 0.02 in   Overcast
11:55 PM 60.8 °F 55.4 °F 82% 29.89 in 6.0 mi ESE 9.2 mph 17.3 mph 0.03 in   Overcast